Regional Weather Roundup
Issued by NWS

Home | Current Version | Previous Version | Graphics & Text | Print | Product List | Glossary On
Versions: 1 2 3 4 5 6 7 8 9 10 11 12 13 14 15 16 17 18 19 20 21 22 23 24 25 26 27 28 29 30 31 32 33 34 35 36 37 38 39 40 41 42 43 44 45 46 47 48 49 50
000
ASUS43 KIND 230209
RWRIN

WEATHER ROUNDUP FOR INDIANA
NATIONAL WEATHER SERVICE INDIANAPOLIS IN
1000 PM EDT FRI JUL 22 2016

NOTE: "FAIR" INDICATES FEW OR NO CLOUDS BELOW 12,000 FEET WITH NO
SIGNIFICANT WEATHER AND/OR OBSTRUCTIONS TO VISIBILITY.

* - STATION DOES NOT REPORT WEATHER SUCH AS PRECIPITATION OR FOG.

+ - STATION NOT QUALITY CONTROLLED BY THE NATIONAL WEATHER SERVICE.
    USE DATA WITH CAUTION...ESPECIALLY DEWPOINT AND RELATIVE
    HUMIDITY OBSERVATIONS.

INZ001>003-010>013-019-020-230300-
NORTHWEST INDIANA

CITY           SKY/WX    TMP DP  RH WIND       PRES   REMARKS
GARY /AIRPORT/ MOCLDY    81  79  94 CALM      29.98S
KNOX *+        CLEAR     77  70  78 W5        29.99R
LA PORTE +     CLEAR     80  79  98 W5        30.00S
MICHIGAN CITY+ CLEAR     75  72  88 CALM      29.99S
MONTICELLO +   CLOUDY    79  71  77 CALM      30.00R
RENSSELAER +   CLEAR     75  73  94 CALM      30.00R
VALPARAISO     CLEAR     78  74  87 W3        29.99S

$$

LMZ046-743>745-230300-
SOUTHERN LAKE MICHIGAN

STATION/POSITION TIME  TEMP    WIND        PRES    WAVE
                       AIR SEA DIR/SP/G            HT
                 (UTC) (F)     (DEG/KT/KT) (MB)    (FT)
BURNS HARBOR     0200   83     190/  1/  7 1015.6S
MICHIGAN CITY    0100   83      CALM  /  1   N/A
5NW MICH CITY    0200   80 77   90/  2/  4   N/A     1

$$

INZ004-005-014>016-021>024-230300-
NORTH CENTRAL INDIANA

CITY           SKY/WX    TMP DP  RH WIND       PRES   REMARKS
GOSHEN         CLEAR     78  70  76 W3        29.99S
LOGANSPORT +   CLEAR     75  72  88 W3        30.01S
PERU/GRISSOM   CLEAR     78  73  83 W6        30.00R
ROCHESTER +    PTCLDY    81  75  83 SW3       30.01R
SOUTH BEND     CLEAR     76  71  85 NW5       30.00R
WARSAW +       MOCLDY    79  72  78 CALM      30.00R

$$

INZ006>009-017-018-025>027-230300-
NORTHEAST INDIANA

CITY           SKY/WX    TMP DP  RH WIND       PRES   REMARKS
ANGOLA *+        N/A     79  73  83 CALM      29.99S
AUBURN +       CLEAR     81  70  69 CALM      30.00R
FORT WAYNE     PTCLDY    76  71  85 W7        30.00R
HUNTINGTON +   CLEAR    N/A N/A N/A CALM      30.00R

$$

INZ028-029-035-036-043>045-051>053-230300-
WEST CENTRAL INDIANA

CITY           SKY/WX    TMP DP  RH WIND       PRES   REMARKS
CRAWFORDSVL +  CLEAR     73  73 100 CALM      30.02R
GREENCASTLE +  CLEAR     73  73 100 CALM      30.03R
LAFAYETTE      CLEAR     77  74  90 CALM      30.00R FOG
TERRE HAUTE    CLEAR     78  73  84 CALM      30.01R

$$

INZ030>032-037>040-046>048-054>057-064-065-230300-
CENTRAL INDIANA

CITY           SKY/WX    TMP DP  RH WIND       PRES   REMARKS
COLUMBUS       CLEAR     79  77  94 SW6       30.01R
FISHERS *+     CLEAR     73  73 100 CALM      30.02R
FRANKFORT +    PTCLDY   N/A N/A N/A SW3       30.04R
INDIANAPOLIS   PTCLDY    80  69  69 NW6       30.02R
-EAGLE CREEK   CLEAR     81  72  74 N3        30.01R
KOKOMO *+      CLEAR     79  70  73 W5        30.01R
MARION +       MOCLDY    76  73  91 W3        30.01S
MT COMFORT *+  CLEAR     75  73  94 CALM      30.03R
SHELBYVILLE    CLEAR     80  75  84 S3        30.00R
ZIONSVILLE +   CLEAR     74  72  93 CALM      30.03R

$$

INZ033-034-041-042-049-050-058-059-230300-
EAST CENTRAL INDIANA

CITY           SKY/WX    TMP DP  RH WIND       PRES   REMARKS
MUNCIE         CLEAR     81  70  69 W5        30.02R

$$

INZ060-061-067>069-081>083-085>088-230300-
SOUTHWEST INDIANA

CITY           SKY/WX    TMP DP  RH WIND       PRES   REMARKS
EVANSVILLE     CLEAR     80  75  84 N3        30.01R
HUNTINGBURG *+ CLOUDY    77  73  88 CALM      30.02R
WASHINGTON +   CLEAR     76  76 100 MISG      30.01R

$$

INZ062-063-066-070>080-084-089>092-230300-
SOUTH CENTRAL AND SOUTHEAST INDIANA

CITY           SKY/WX    TMP DP  RH WIND       PRES   REMARKS
BLOOMINGTON    CLEAR     78  75  90 CALM      30.02R
MADISON *+     CLEAR     77  73  88 CALM      30.04S
NORTH VERNON + CLEAR    N/A N/A N/A CALM      30.03R
SEYMOUR +      CLEAR     79  77  94 CALM      30.01R

$$




USA.gov is the U.S. government's official web portal to all federal, state and local government web resources and services.